Home   Weather   Juiz de Fora   Past weeks

Flag for Brazil Past Weather in Juiz de Fora, Minas Gerais, Brazil — Yesterday and Last 2 Weeks

Now
77 °F

Passing clouds.


Feels Like: 79 °F
Forecast: 59 / 74 °F
Wind: 7 mph from Southeast

Location: Galeao

Current Time: Sep 28, 2016 at 2:13:24 PM

Latest Report: Sep 28, 2016 at 1:00 PM


Visibility: N/A

Pressure: 30.04 "Hg (27.73 "Hg at 697m altitude)

Humidity: 54%

Dew Point: 59 °F

Location of Juiz de ForaLocation

Past Weather in Juiz de Fora — Graph

°F

Juiz de Fora Temperature Yesterday

Maximum temperature yesterday: 75 °F (at 1:00 PM)
Minimum temperature yesterday: 63 °F (at 6:00 AM)
Average temperature yesterday: 68 °F

High & Low Weather Summary for the Past Weeks

 TemperatureHumidityPressure
High95 °F (Sep 13, 1:00 PM)94% (Sep 18, 6:00 AM)30.21 "Hg (Sep 18, 6:00 AM)
Low63 °F (Sep 22, 4:00 AM)26% (Sep 13, 2:00 PM)29.77 "Hg (Sep 14, 1:00 AM)
Average72 °F73%30.03 "Hg
* Reported Sep 13 1:00 PM — Sep 28 1:00 PM, Juiz de Fora, Weather by CustomWeather, © 2016

Note: Actual official high and low records may vary slightly from our data, if they occured in-between our weather recording intervals... More about our weather records

Advertising

Juiz de Fora Weather History for the Previous 24 Hours

Scroll right to see more
 ConditionsComfort  
Time TempWeatherWind HumidityBarometerVisibility
1:00 PM
Wed, Sep 28
77 °FPassing clouds.7 mph54%30.04 "HgN/A
12:00 PM77 °FScattered clouds.3 mph57%30.07 "HgN/A
11:00 AM75 °FPassing clouds.7 mph61%30.09 "HgN/A
10:00 AM73 °FScattered clouds.7 mph57%30.12 "HgN/A
9:00 AM72 °FOvercast.5 mph65%30.15 "HgN/A
8:00 AM68 °FOvercast.6 mph78%30.15 "HgN/A
7:00 AM68 °FOvercast.2 mph78%30.12 "HgN/A
6:00 AM66 °FPartly sunny.3 mph83%30.12 "HgN/A
5:00 AM64 °FPartly cloudy.6 mph88%30.12 "HgN/A
4:00 AM64 °FPartly cloudy.6 mph88%30.12 "HgN/A
3:00 AM64 °FPartly cloudy.5 mph88%30.12 "HgN/A
2:00 AM66 °FPassing clouds.6 mph83%30.12 "HgN/A
1:00 AM66 °FPassing clouds.3 mph83%30.15 "HgN/A
12:00 AM66 °FPassing clouds.6 mph83%30.15 "HgN/A
11:00 PM
Tue, Sep 27
66 °FPassing clouds.3 mph83%30.15 "HgN/A
10:00 PM70 °FOvercast.6 mph64%30.15 "HgN/A
9:00 PM70 °FOvercast.7 mph64%30.15 "HgN/A
8:00 PM70 °FOvercast.8 mph64%30.15 "HgN/A
7:00 PM70 °FOvercast.9 mph69%30.12 "HgN/A
6:00 PM70 °FMostly cloudy.8 mph69%30.09 "HgN/A
5:00 PM70 °FOvercast.9 mph69%30.07 "HgN/A
4:00 PM70 °FOvercast.8 mph69%30.07 "HgN/A
3:00 PM70 °FMostly cloudy.7 mph73%30.07 "HgN/A
2:00 PM72 °FMostly cloudy.9 mph69%30.07 "HgN/A
Weather by CustomWeather, © 2016

See weather overviewHow to use our weather pages